Location: Estes Par
(40.3770°N, 105.5210°W)
Time: 20:18:51
(UTC-06:00)

Vanguard 1 - Visible Passes

Search period start: 22 October 2017 00:00
Search period end: 01 November 2017 00:00
Orbit: 650 x 3834 km, 34.3° (Epoch: 21 October)

Date Brightness Start Highest point End Pass type
(mag) Time Alt. Az. Time Alt. Az. Time Alt. Az.
22 Oct 12.7 02:22:45 56° ESE 02:22:45 56° ESE 02:40:10 10° E visible
22 Oct 12.6 04:35:28 46° WSW 04:43:30 68° SSW 05:06:51 10° ESE visible
22 Oct 13.3 06:49:21 10° W 07:09:13 45° SW 07:29:07 10° SSE visible
23 Oct 13.8 00:29:55 17° E 00:29:55 17° E 00:33:34 10° E visible
23 Oct 12.5 02:42:38 63° SE 02:42:38 63° SE 03:01:53 10° E visible
23 Oct 12.7 04:55:21 39° W 05:04:58 64° SSW 05:27:59 10° SE visible
24 Oct 13.6 00:49:50 22° E 00:49:50 22° E 00:55:26 10° E visible
24 Oct 12.4 03:02:33 69° SSE 03:02:33 69° SSE 03:23:33 10° ESE visible
24 Oct 12.8 05:15:16 33° W 05:26:21 58° SSW 05:48:52 10° SE visible
25 Oct 13.5 01:09:47 26° E 01:09:47 26° E 01:17:15 10° E visible
25 Oct 12.4 03:22:30 70° S 03:22:30 70° S 03:45:06 10° ESE visible
25 Oct 12.9 05:35:14 27° W 05:47:38 51° SSW 06:09:28 10° SE visible
26 Oct 13.3 01:29:46 31° E 01:29:46 31° E 01:39:03 10° E visible
26 Oct 12.3 03:42:30 66° SSW 03:43:28 67° SSW 04:06:29 10° ESE visible
26 Oct 13.1 05:55:14 21° W 06:08:49 44° SSW 06:29:43 10° SSE visible
27 Oct 13.1 01:49:48 36° ESE 01:49:48 36° ESE 02:00:48 10° E visible
27 Oct 12.4 04:02:32 59° SW 04:04:52 62° SSW 04:27:40 10° SE visible
27 Oct 13.2 06:15:16 16° W 06:29:54 37° SW 06:49:32 10° SSE visible
28 Oct 13.0 02:09:52 41° ESE 02:09:52 41° ESE 02:22:30 10° ESE visible
28 Oct 12.5 04:22:36 51° SW 04:26:14 56° SSW 04:48:36 10° SE visible
28 Oct 13.4 06:35:20 11° W 06:50:53 30° SW 07:08:48 10° S visible
29 Oct 12.9 02:29:58 45° SE 02:29:58 45° SE 02:44:05 10° ESE visible
29 Oct 12.6 04:42:42 43° WSW 04:47:33 49° SSW 05:09:13 10° SE visible
29 Oct 13.5 06:57:41 10° W 07:11:49 23° SW 07:27:16 10° S visible
30 Oct 13.9 00:37:22 11° E 00:37:22 11° E 00:37:55 10° E visible
30 Oct 12.8 02:50:06 49° SE 02:50:06 49° SE 03:05:30 10° ESE visible
30 Oct 12.8 05:02:51 35° WSW 05:08:47 42° SSW 05:29:27 10° SSE visible
31 Oct 13.8 00:57:31 14° E 00:57:31 14° E 00:59:38 10° E visible
31 Oct 12.7 03:10:16 50° SSE 03:10:16 50° SSE 03:26:43 10° SE visible
31 Oct 13.0 05:23:00 28° WSW 05:29:57 34° SW 05:49:13 10° SSE visible
